Flag for New Zealand

Past Weather in Wellington, New Zealand — Yesterday and Last 2 Weeks

Now
55 °F

Overcast.


Feels Like: 52 °F
Forecast: 56 / 53 °F
Wind: 14 mph from Northeast

Location: Wellington Airport

Current Time: Jul 6, 2020 at 6:24:14 am

Latest Report: Jul 6, 2020 at 5:30 am


Visibility: N/A

Pressure: 29.45 "Hg

Humidity: 77%

Dew Point: 48 °F

Location of WellingtonLocation

Past Weather in Wellington — Graph

°F

Wellington Temperature Yesterday

Maximum temperature yesterday: 57 °F (at 3:30 pm)
Minimum temperature yesterday: 50 °F (at 6:30 am)
Average temperature yesterday: 53 °F

High & Low Weather Summary for the Past Weeks

 TemperatureHumidityPressure
High63 °F (Jun 27, 1:30 pm)100% (Jun 21, 5:30 am)30.33 "Hg (Jun 21, 5:30 am)
Low41 °F (Jun 24, 6:00 am)59% (Jul 5, 11:30 am)29.45 "Hg (Jul 6, 5:00 am)
Average51 °F82%29.98 "Hg
* Reported Jun 21 5:00 am — Jul 6 5:00 am, Wellington. Weather by CustomWeather, © 2020

Note: Actual official high and low records may vary slightly from our data, if they occured in-between our weather recording intervals... More about our weather records

Wellington Weather History for the Previous 24 Hours

Scroll right to see more
 ConditionsComfort  
Time TempWeatherWind HumidityBarometerVisibility
5:00 am
Mon, Jul 6
54 °FOvercast.10 mph77%29.45 "HgN/A
4:30 am54 °FLight rain. Mostly cloudy.7 mph77%29.47 "HgN/A
4:00 am52 °FLight rain. Overcast.7 mph88%29.50 "HgN/A
3:30 am52 °FDrizzle. Overcast.5 mph88%29.50 "HgN/A
3:00 am54 °FLight rain. Mostly cloudy.3 mph77%29.53 "HgN/A
2:30 am55 °FLight rain. Mostly cloudy.5 mph72%29.53 "HgN/A
2:00 am55 °FLight rain. Passing clouds.9 mph72%29.56 "HgN/A
1:30 am55 °FCool.8 mph67%29.56 "HgN/A
12:30 am55 °FPassing clouds.7 mph63%29.59 "HgN/A
12:00 am57 °FCool.9 mph63%29.62 "HgN/A
11:30 pm
Sun, Jul 5
55 °FCool.8 mph67%29.62 "HgN/A
11:00 pm54 °FCool.6 mph67%29.65 "HgN/A
10:30 pm52 °FPassing clouds.6 mph72%29.65 "HgN/A
10:00 pm54 °FPassing clouds.5 mph67%29.68 "HgN/A
9:30 pm54 °FOvercast.6 mph67%29.68 "HgN/A
9:00 pm52 °FPartly cloudy.6 mph77%29.71 "HgN/A
8:30 pm52 °FPassing clouds.7 mph77%29.71 "HgN/A
8:00 pm52 °FPassing clouds.7 mph72%29.71 "HgN/A
7:30 pm54 °FOvercast.7 mph67%29.74 "HgN/A
7:00 pm54 °FPartly cloudy.7 mph72%29.74 "HgN/A
6:30 pm54 °FCool.10 mph67%29.77 "HgN/A
6:00 pm52 °FPassing clouds.8 mph77%29.77 "HgN/A
5:30 pm54 °FCool.9 mph67%29.77 "HgN/A
5:00 pm54 °FCool.12 mph72%29.77 "HgN/A
4:30 pm55 °FCool.15 mph63%29.80 "HgN/A
4:00 pm55 °FCool.18 mph63%29.80 "HgN/A
3:30 pm57 °FRefreshingly cool.22 mph59%29.80 "HgN/A
3:00 pm55 °FCool.24 mph63%29.80 "HgN/A
2:30 pm55 °FCool.23 mph63%29.83 "HgN/A
2:00 pm55 °FCool.21 mph63%29.83 "HgN/A
1:30 pm55 °FRefreshingly cool.23 mph59%29.83 "HgN/A
12:30 pm55 °FRefreshingly cool.22 mph59%29.89 "HgN/A
12:00 pm55 °FRefreshingly cool.21 mph59%29.89 "HgN/A
11:30 am55 °FRefreshingly cool.22 mph59%29.92 "HgN/A
11:00 am54 °FCool.23 mph63%29.92 "HgN/A
10:30 am54 °FCool.24 mph63%29.92 "HgN/A
10:00 am54 °FPassing clouds.23 mph67%29.92 "HgN/A
9:30 am52 °FCool.23 mph72%29.95 "HgN/A
9:00 am50 °FCool.22 mph76%29.95 "HgN/A
8:30 am50 °FCool.22 mph82%29.95 "HgN/A
8:00 am50 °FBroken clouds.22 mph82%29.95 "HgN/A
7:30 am50 °FPassing clouds.20 mph88%29.95 "HgN/A
7:00 am50 °FOvercast.17 mph88%29.95 "HgN/A
6:30 am50 °FPassing clouds.16 mph94%29.95 "HgN/A
6:00 am52 °FPassing clouds.16 mph88%29.95 "HgN/A
Weather by CustomWeather, © 2020

See weather overview